Hill City, KS

9:07 PM CDT on July 24, 2017 (GMT -0500)
Hill City Municipal

Weather History for KHLC - November, 2013

Change the Weather History Date:

Saturday, November 2, 2013

  Actual Average Record
Temperature  
Mean Temperature 46 °F 47 °F  
Max Temperature 63 °F 61 °F 83 °F (1931)
Min Temperature 29 °F 33 °F 7 °F (1951)
Degree Days  
Heating Degree Days 19    
Moisture  
Dew Point 26 °F    
Average Humidity 52    
Maximum Humidity 79    
Minimum Humidity 23    
Precipitation  
Precipitation 0.00 in 0.05 in 0.48 in (1998)
Month to date precipitation T 0.10  
Year to date precipitation 16.87 21.38  
Sea Level Pressure  
Sea Level Pressure 30.18 in    
Wind  
Wind Speed 6 mph (SW)    
Max Wind Speed 12 mph    
Max Gust Speed 20 mph    
Visibility 10 miles    
Events      
T = Trace of Precipitation, MM = Missing Value Source: NWS Daily Summary

Daily Weather History Graph

Daily Weather History Graph

Search for Another Location

Airport or City:

Trip Planner

Search our weather history database for the weather conditions in past years. The results will help you decide how hot, cold, wet, or windy it might be!

Date:

Astronomy

Nov. 02, 2013 Rise Set
Actual Time 8:08 AM CDT 6:36 PM CDT
Civil Twilight 7:40 AM CDT 7:04 PM CDT
Nautical Twilight 7:09 AM CDT 7:36 PM CDT
Astronomical Twilight 6:37 AM CDT 8:07 PM CDT
Moon 7:08 AM CDT (11/2) 6:08 PM CDT (11/2)
Length of Visible Light 11h 23m
Length of Day
10h 27m
Waning Crescent, 1% of the Moon is Illuminated
Nov 2
Waning Crescent
Nov 3
New
Nov 9
First Quarter
Nov 17
Full
Nov 25
Last Quarter

Hourly Weather History & Observations

Time (CDT) Temp. Windchill Dew Point Humidity Pressure Visibility Wind Dir Wind Speed Gust Speed Precip Events Conditions
12:53 AM 36.0 °F 32.1 °F 25.0 °F 64% 30.19 in 10.0 mi WSW 4.6 mph - N/A   Clear
1:53 AM 33.1 °F 28.7 °F 25.0 °F 72% 30.21 in 10.0 mi WNW 4.6 mph - N/A   Clear
2:53 AM 34.0 °F 28.0 °F 25.0 °F 70% 30.23 in 10.0 mi West 6.9 mph - N/A   Clear
3:53 AM 33.1 °F 30.0 °F 25.0 °F 72% 30.23 in 10.0 mi West 3.5 mph - N/A   Clear
4:53 AM 34.0 °F 28.8 °F 25.0 °F 70% 30.24 in 10.0 mi West 5.8 mph - N/A   Clear
5:53 AM 32.0 °F 27.5 °F 25.0 °F 75% 30.26 in 10.0 mi West 4.6 mph - N/A   Clear
6:53 AM 33.1 °F 26.9 °F 25.0 °F 72% 30.28 in 10.0 mi West 6.9 mph - N/A   Clear
7:53 AM 30.0 °F 25.2 °F 24.1 °F 79% 30.30 in 10.0 mi West 4.6 mph - N/A   Clear
8:53 AM 33.1 °F 26.1 °F 25.0 °F 72% 30.32 in 10.0 mi West 8.1 mph - N/A   Clear
9:53 AM 39.0 °F 34.8 °F 27.0 °F 62% 30.32 in 10.0 mi West 5.8 mph - N/A   Clear
10:53 AM 48.0 °F - 28.9 °F 48% 30.31 in 10.0 mi Variable 3.5 mph - N/A   Clear
11:53 AM 54.0 °F - 26.1 °F 34% 30.30 in 10.0 mi SSW 3.5 mph - N/A   Clear
12:53 PM 57.9 °F - 25.0 °F 28% 30.26 in 10.0 mi SW 11.5 mph 17.3 mph N/A   Clear
1:53 PM 60.1 °F - 25.0 °F 26% 30.21 in 10.0 mi SSW 10.4 mph 19.6 mph N/A   Clear
2:53 PM 61.0 °F - 23.0 °F 23% 30.17 in 10.0 mi SSW 8.1 mph - N/A   Clear
3:53 PM 62.1 °F - 24.1 °F 23% 30.14 in 10.0 mi South 10.4 mph 16.1 mph N/A   Clear
4:53 PM 62.1 °F - 24.1 °F 23% 30.11 in 10.0 mi South 10.4 mph - N/A   Clear
5:53 PM 60.1 °F - 25.0 °F 26% 30.09 in 10.0 mi South 11.5 mph - N/A   Clear
6:53 PM 53.1 °F - 27.0 °F 37% 30.09 in 9.0 mi SSE 6.9 mph - N/A   Clear
7:53 PM 48.9 °F - 28.0 °F 44% 30.08 in 10.0 mi SSE 6.9 mph - N/A   Clear
8:53 PM 48.9 °F - 30.0 °F 48% 30.06 in 10.0 mi SSE 9.2 mph - N/A   Clear
9:53 PM 46.0 °F 42.5 °F 30.0 °F 54% 30.04 in 10.0 mi South 6.9 mph - N/A   Clear
10:53 PM 45.0 °F 39.7 °F 30.9 °F 58% 29.99 in 10.0 mi SSE 10.4 mph 18.4 mph N/A   Clear
11:53 PM 45.0 °F 41.2 °F 30.9 °F 58% 29.96 in 10.0 mi SSE 6.9 mph - N/A   Clear